EDT,Max TemperatureF,Mean TemperatureF,Min TemperatureF,Max Dew PointF,MeanDew PointF,Min DewpointF,Max Humidity, Mean Humidity, Min Humidity, Max Sea Level PressureIn, Mean Sea Level PressureIn, Min Sea Level PressureIn, Max VisibilityMiles, Mean VisibilityMiles, Min VisibilityMiles, Max Wind SpeedMPH, Mean Wind SpeedMPH, Max Gust SpeedMPH,PrecipitationIn, CloudCover, Events, WindDirDegrees
2010-10-1,75,66,60,70,66,57,100,92,82,29.82,29.62,29.54,10,4,0,29,17,45,0.79,6,Fog-Rain,183
2010-10-2,64,56,48,58,51,46,90,77,60,30.04,29.84,29.57,10,10,4,26,17,38,0.01,2,Rain,327
2010-10-3,60,55,50,51,49,46,93,76,67,30.14,30.09,30.06,10,10,10,26,13,38,0.00,3,,45
2010-10-4,59,57,55,58,55,50,100,92,75,30.11,30.05,30.00,10,5,2,26,22,38,0.13,8,Rain,39
2010-10-5,62,60,59,61,59,57,100,97,88,30.05,30.00,29.96,9,2,0,20,13,28,0.07,8,Fog-Rain,59
2010-10-6,64,60,57,62,58,48,100,92,70,30.06,29.86,29.68,10,7,2,24,10,30,1.25,7,Rain,64
2010-10-7,64,60,57,54,50,46,83,71,62,29.75,29.60,29.52,10,10,10,32,22,44,0.02,4,Rain,254
2010-10-8,66,60,54,56,49,40,80,64,51,29.86,29.80,29.74,10,10,10,26,16,37,0.00,0,,266
2010-10-9,66,56,48,56,43,35,80,56,37,29.94,29.84,29.75,10,10,10,18,12,25,0.00,0,,331
2010-10-10,61,54,48,56,40,31,90,58,40,29.95,29.84,29.71,10,10,10,23,15,30,0.00,0,,280
2010-10-11,69,60,51,57,51,42,93,74,38,29.82,29.76,29.70,10,10,8,16,9,21,0.00,0,,269
2010-10-12,64,56,48,60,54,47,93,87,78,29.86,29.78,29.73,10,9,4,14,8,,0.09,6,Rain,322
2010-10-13,61,53,42,48,45,40,92,76,57,30.04,29.98,29.88,10,10,10,14,7,,0.00,1,,20
2010-10-14,61,50,41,56,47,39,93,81,62,30.05,29.91,29.55,10,10,6,21,8,31,0.14,3,Rain,100
2010-10-15,62,56,50,59,51,39,94,81,62,29.51,29.30,29.19,10,9,2,37,24,52,0.38,7,Rain,225
2010-10-16,60,54,48,40,38,36,68,59,48,29.77,29.53,29.34,10,10,10,25,20,38,0.00,4,,307
2010-10-17,61,54,48,54,43,37,87,66,53,29.83,29.77,29.70,10,10,10,22,17,32,0.00,0,,283
2010-10-18,57,54,51,43,38,30,71,55,36,29.90,29.86,29.80,10,10,10,21,12,26,0.00,1,,283
2010-10-19,55,48,41,39,36,32,86,61,45,29.95,29.91,29.88,10,9,2,13,7,,0.00,1,,283
2010-10-20,61,50,41,52,47,37,89,76,62,29.97,29.89,29.81,10,10,8,13,7,,0.05,3,Rain,176
2010-10-21,61,54,46,53,47,36,94,79,61,29.78,29.66,29.54,10,10,6,22,9,45,0.08,4,Rain,243
2010-10-22,52,46,42,35,29,24,73,52,38,30.00,29.87,29.74,10,10,10,25,14,36,0.00,2,,288
2010-10-23,57,50,43,45,37,26,68,59,49,30.15,30.06,30.01,10,10,10,24,17,34,0.00,2,,284
2010-10-24,55,52,48,54,42,35,96,72,53,30.21,30.14,30.04,10,10,7,14,7,,0.00,6,,98
2010-10-25,64,60,55,59,57,54,97,92,80,30.07,30.01,29.93,10,8,5,16,8,24,0.00,4,Rain,204
2010-10-26,64,62,59,61,59,57,100,93,87,30.01,29.96,29.88,9,4,0,22,15,31,0.13,6,Fog-Rain,205
2010-10-27,66,63,60,64,62,59,100,96,90,30.02,29.96,29.91,7,4,0,29,16,41,1.49,7,Fog-Rain,196
2010-10-28,64,60,55,63,60,55,100,99,93,29.92,29.86,29.81,10,2,0,23,14,30,1.08,7,Fog-Rain,230
2010-10-29,57,52,48,49,42,36,77,66,53,29.90,29.84,29.79,10,10,10,23,12,31,0.01,3,Rain,324
2010-10-30,55,50,44,45,37,29,72,60,51,30.05,29.93,29.79,10,10,10,31,19,39,0.00,1,,262
2010-10-31,59,51,42,48,39,26,75,60,42,30.04,29.79,29.69,10,10,9,28,21,38,0.00,4,,289